GSAT0218 (GALILEO 22) (43058 NORAD) Tracking and Keplerian Element Data

This shows tracking and keplerian element data for the satellite.

Feedback or suggestion? Click here.




ElementValue
Catalog43058
NameGSAT0218 (GALILEO 22)
Epoch Orbit3789
Epoch Day12.24862032
Epoch Year2024
RAAN245.9179
Inclination55.415
Eccentricity0.0002975
Argument of Perigee311.2509
Mean Anonmoly48.8238
Mean Motion1.7047403
Decay Rate6.9E-07
L11 43058U 17079D 24012.24862032 .00000069 00000+0 00000+0 0 9993
L22 43058 55.4150 245.9179 0002975 311.2509 48.8238 1.70474030 37899



Live tracking and technical data element details for GSAT0218 (GALILEO 22) (NORAD 43058). GSAT0218 (GALILEO 22) can be tracked NOW for your location showing map with azimuth and elevation plus other details from your city location.







IsCatalogInMostPopularTable: catalog: 43058, numindb: 811
Update: records affected: 1



GetName: 43058 GSAT0218 (GALILEO 22)

Hit Count: updated at: Sat, 20 Apr 2024 09:27:37 GMT